Orbital Elements at Epoch 2459000.5 (2020-May-31.0) TDB
Reference: JPL 23 (heliocentric ecliptic J2000)
Element | Value | Uncertainty (1-sigma) | Units |
e | .1185966145902148 | 2.6885e-08 | |
a | 2.422770823140658 | 8.7645e-09 | au |
q | 2.135438405588228 | 6.3586e-08 | au |
i | 4.04177794480417 | 5.8584e-06 | deg |
node | 14.58866172343931 | 4.2633e-05 | deg |
peri | 101.5469868862549 | 5.2155e-05 | deg |
M | 93.79152034811693 | 2.8504e-05 | deg |
tp | 2458641.637561188437 (2019-Jun-07.13756119) | 0.00010853 | TDB |
period | 1377.421727387071 3.77 | 7.4743e-06 2.046e-08 | d yr |
n | .2613578636391264 | 1.4182e-09 | deg/d |
Q | 2.710103240693088 | 9.8039e-09 | au |
|
| | Orbit Determination Parameters
Additional Information
|